Regional Weather Roundup
Issued by NWS

Home | Current Version | Previous Version | Text Only | Print | Product List | Glossary Off
Versions: 1 2 3 4 5 6 7 8 9 10 11 12 13 14 15 16 17 18 19 20 21 22 23 24 25 26 27 28 29 30 31 32 33 34 35 36 37 38 39 40 41 42 43 44 45 46 47 48 49 50

000
ASUS43 KFSD 281202
RWRSD

WEATHER ROUNDUP FOR SOUTH DAKOTA
NATIONAL WEATHER SERVICE SIOUX FALLS SD
600 AM CST WED JAN 28 2015

NOTE: "FAIR" INDICATES FEW OR NO CLOUDS BELOW 12,000 FEET WITH NO
SIGNIFICANT WEATHER AND/OR OBSTRUCTIONS TO VISIBILITY.


SDZ001>005-009-010-012>017-281300-
NORTHWEST AND NORTH CENTRAL SOUTH DAKOTA

CITY           SKY/WX    TMP DP  RH WIND       PRES   REMARKS
BUFFALO          N/A     41  30  65 W10       29.73R
FAITH            N/A     41  30  65 NW9       29.73R
MOBRIDGE       CLOUDY    32  29  88 SE5       29.69F WCI  27
$$

SDZ012>016-024>037-041>051-057-063-072>074-281300-
SOUTHWEST AND SOUTH CENTRAL SOUTH DAKOTA

CITY           SKY/WX    TMP DP  RH WIND       PRES   REMARKS
RAPID CTY ARPT PTCLDY    35  25  66 NW3       29.78R
PIERRE         CLOUDY    29  28  96 W7        29.70R WCI  22
CUSTER         PTCLDY    40  27  59 SW7       29.88R
ELLSWORTH AFB  PTCLDY    42  26  54 W6        29.78R
PHILIP         MOCLDY    37  28  70 W13       29.75R
PINE RIDGE     MOCLDY    46  30  53 W13       29.84R
WINNER         FAIR      51  30  44 SW14      29.72S
$$

SDZ004>011-016>023-039-040-281300-
NORTHEAST SOUTH DAKOTA

CITY           SKY/WX    TMP DP  RH WIND       PRES   REMARKS
ABERDEEN       MOCLDY    29  27  92 E3        29.75F
WATERTOWN      MOCLDY    32  29  88 S12       29.75F WCI  23
SISSETON         N/A     32  32 100 S13       29.80S WCI  22
$$

SDZ017-020-022-023-036>040-048>070-281300-
SOUTHEAST SOUTH DAKOTA

CITY           SKY/WX    TMP DP  RH WIND       PRES   REMARKS
SIOUX FALLS    MOCLDY    34  30  85 S14       29.83S WCI  25
HURON          PTCLDY    33  30  88 SE10      29.72F WCI  25
MITCHELL         N/A     34  30  85 MISG      29.74F
YANKTON        PTCLDY    34  28  80 SE9       29.83F WCI  26
$$

ABBREVIATIONS USED IN REMARKS
   TC - TEMPERATURE IN CELSIUS
  WCI - WIND CHILL INDEX
   HX - HEAT INDEX
  VSB - VISIBILITY



USA.gov is the U.S. government's official web portal to all federal, state and local government web resources and services.